Yakima, WA
on Friday, February 8, 2013

Friday
Previous Day Next Day
Daily Summary
 ActualAverageRecord
Temperature
Mean Temperature °F 35°F  
Max Temperature 53°F 44°F 58°F (1995)
Min Temperature 24°F 25°F 0°F (1949)
Degree Days
Heating Degree Days 26 30  
Month to date heating degree days 201 245  
Since 1 July heating degree days 3470 3963  
Cooling Degree Days 0 0  
Month to date cooling degree days 0 0  
Year to date cooling degree days 0 0  
Moisture
Dew Point 21°F   
Average Humidity 52    
Maximum Humidity 75    
Minimum Humidity 28    
Precipitation
Precipitation 0.00 in 0.03 in 0.57 in (2014)
Month to date precipitation T 0.23  
Year to date precipitation 0.10 1.37  
Snow
Snow 0.00 in 0.10 in 1.70 in (1985)
Month to date snowfall 0.0 0.9  
Year to date snowfall 1.1 6.2  
Since 1 July snowfall 15.3 19.2  
Snow Depth 0.00 in   
Wind
Wind Speed 3 mph   
Max Wind Speed 14 mph   
Max Gust Speed 20 mph   
Visibility 10 miles   
Events     

Key: T is trace of precipitation, MM is missing value
Source: NWS Daily Summary
Time(PST)TemperatureDew PointHumidity Pressure Visibility Wind DirectionWind SpeedGust SpeedPrecipitationEvents Conditions
12:53 AM 28.9°F 19.9°F 69% 30.12 in 10.0 miles Calm Calm - N/A   Clear
1:53 AM 28.0°F 19.9°F 72% 30.13 in 10.0 miles WSW 4.6 mph - N/A   Clear
2:53 AM 26.1°F 19.0°F 75% 30.14 in 10.0 miles Calm Calm - N/A   Clear
3:53 AM 26.1°F 19.0°F 75% 30.14 in 10.0 miles Calm Calm - N/A   Clear
4:53 AM 26.1°F 19.9°F 78% 30.16 in 10.0 miles Calm Calm - N/A   Clear
5:53 AM 28.9°F 21.0°F 72% 30.17 in 10.0 miles WSW 3.5 mph - N/A   Clear
6:53 AM 28.0°F 19.9°F 72% 30.18 in 10.0 miles West 4.6 mph - N/A   Clear
7:53 AM 28.0°F 19.9°F 72% 30.20 in 10.0 miles WNW 4.6 mph - N/A   Clear
8:53 AM 37.9°F 25.0°F 60% 30.20 in 10.0 miles Calm Calm - N/A   Clear
9:53 AM 42.1°F 24.1°F 49% 30.20 in 10.0 miles NNW 3.5 mph - N/A   Clear
10:53 AM 45.0°F 24.1°F 44% 30.20 in 10.0 miles North 5.8 mph - N/A   Clear
11:53 AM 48.9°F 23.0°F 36% 30.17 in 10.0 miles Variable 3.5 mph - N/A   Clear
12:53 PM 50.0°F 21.9°F 33% 30.16 in 10.0 miles Calm Calm - N/A   Clear
1:53 PM 51.1°F 21.0°F 31% 30.15 in 10.0 miles Calm Calm - N/A   Clear
2:53 PM 52.0°F 19.0°F 27% 30.14 in 10.0 miles SE 4.6 mph - N/A   Clear
3:53 PM 51.1°F 19.0°F 28% 30.14 in 10.0 miles South 3.5 mph - N/A   Clear
4:53 PM 46.9°F 21.9°F 37% 30.14 in 10.0 miles SW 6.9 mph - N/A   Clear
5:53 PM 44.1°F 21.0°F 40% 30.15 in 10.0 miles NNW 8.1 mph - N/A   Clear
6:53 PM 42.1°F 21.9°F 45% 30.17 in 10.0 miles NNW 5.8 mph - N/A   Clear
7:53 PM 37.9°F 21.9°F 53% 30.18 in 10.0 miles Calm Calm - N/A   Clear
8:53 PM 37.0°F 21.9°F 54% 30.18 in 10.0 miles Calm Calm - N/A   Clear
9:53 PM 36.0°F 21.9°F 57% 30.17 in 10.0 miles Calm Calm - N/A   Clear
10:53 PM 37.9°F 23.0°F 55% 30.17 in 10.0 miles NW 4.6 mph - N/A   Clear
11:53 PM 36.0°F 23.0°F 59% 30.17 in 10.0 miles North 3.5 mph - N/A   Clear
Moon Phase
Feb. 08 Feb. 10 Feb. 17 Feb. 25 Mar. 04
Sunrise:07:16 AM (PST) Moon Rise:05:51 AM (PST)2/8
Sunset:05:17 PM (PST) Moon Set:03:55 PM (PST)2/8

Copyright © 2014 The Weather Underground, Inc.